This demonstration page uses our WeatherBlox Daily Observations layout. Learn more.

Hourly Observations for February 15, 2020

Temp ( °F °C ) Dew Point ( °F °C ) Humidity (%) Winds ( mph kmh ) Pressure ( in mb ) Visibility ( mi km ) Precip ( " mm )
12:15 am 00:15 Clear 25 -3.7 20 -6.5 81 81 S 9 15 30 1016 10 16.0934 0 0
12:35 am 00:35 Clear 25 -3.7 20 -6.5 81 81 S 8 13 30 1016 10 16.0934 0 0
12:55 am 00:55 Clear 25 -3.8 21 -6.3 83 83 S 7 11 30 1016 10 16.0934 0 0
1:15 am 01:15 Clear 25 -3.8 21 -6.2 84 84 S 8 13 30 1016 10 16.0934 0 0
1:35 am 01:35 Clear 25 -3.9 21 -6.2 84 84 S 7 11 29.99 1016 10 16.0934 0 0
1:55 am 01:55 Clear 25 -4.1 21 -6.3 85 85 SSW 3 6 30 1016 10 16.0934 0 0
2:15 am 02:15 Clear 24 -4.3 20 -6.4 85 85 Calm 30.02 1016 10 16.0934 0 0
2:35 am 02:35 Clear 23 -4.8 20 -6.7 87 87 SW 3 6 30.03 1017 10 16.0934 0 0
2:55 am 02:55 Clear 21 -5.9 18 -7.7 87 87 Calm 30.04 1017 10 16.0934 0 0
3:15 am 03:15 Clear 19 -7.3 17 -8.5 91 91 NNE 7 11 30.08 1018 10 16.0934 0 0
3:35 am 03:35 Clear 21 -6.1 19 -7.1 93 93 N 8 13 30.07 1018 10 16.0934 0 0
3:55 am 03:55 Clear 22 -5.4 20 -6.6 91 91 N 3 6 30.07 1018 10 16.0934 0 0
4:15 am 04:15 Clear 20 -6.5 18 -7.6 92 92 NNW 3 6 30.09 1019 10 16.0934 0 0
4:35 am 04:35 Clear 21 -6 19 -7.1 92 92 NNW 3 6 30.09 1019 10 16.0934 0 0
4:55 am 04:55 Clear 20 -6.8 18 -7.9 92 92 NW 3 6 30.1 1019 10 16.0934 0 0
5:15 am 05:15 Clear 20 -6.9 18 -7.9 93 93 Calm 30.11 1020 10 16.0934 0 0
5:35 am 05:35 Clear 18 -7.8 16 -8.9 92 92 WNW 3 6 30.13 1020 10 16.0934 0 0
5:55 am 05:55 Clear 19 -7 18 -8 93 93 WNW 3 6 30.13 1020 10 16.0934 0 0
6:15 am 06:15 Clear 20 -6.7 18 -7.6 93 93 WNW 5 7 30.13 1020 10 16.0934 0 0
6:35 am 06:35 Clear 20 -6.8 18 -7.9 92 92 NW 9 15 30.14 1021 10 16.0934 0 0
6:55 am 06:55 Clear 22 -5.8 19 -7 91 91 NW 8 13 30.15 1021 10 16.0934 0 0
7:15 am 07:15 Clear 22 -5.4 20 -6.9 89 89 NW 7 11 30.15 1021 10 16.0934 0 0
7:35 am 07:35 Sunny 23 -4.9 21 -6.2 91 91 WNW 7 11 30.15 1021 10 16.0934 0 0
7:55 am 07:55 Sunny 23 -5.2 20 -6.7 89 89 NW 7 11 30.17 1022 10 16.0934 0 0
8:15 am 08:15 Sunny 25 -3.7 22 -5.5 87 87 NW 7 11 30.15 1021 10 16.0934 0 0
8:35 am 08:35 Sunny 28 -2 24 -4.3 84 84 NW 8 13 30.15 1021 10 16.0934 0 0
8:55 am 08:55 Sunny 32 -0.2 26 -3.3 80 80 NNW 8 13 30.16 1021 10 16.0934 0 0
9:15 am 09:15 Sunny 34 1.1 27 -3 74 74 NNW 7 11 30.14 1021 10 16.0934 0 0
9:35 am 09:35 Sunny 37 2.6 26 -3.1 66 66 N 8 13 30.14 1021 10 16.0934 0 0
9:55 am 09:55 Sunny 38 3.5 26 -3.5 61 61 N 10 17 30.13 1020 10 16.0934 0 0
10:15 am 10:15 Sunny 39 4 25 -3.8 57 57 N 13 20 30.13 1020 10 16.0934 0 0
10:35 am 10:35 Sunny 41 4.8 26 -3.6 55 55 N 9 15 30.12 1020 10 16.0934 0 0
10:55 am 10:55 Sunny 43 6.2 22 -5.3 44 44 N 12 19 30.11 1020 10 16.0934 0 0
11:15 am 11:15 Sunny 44 6.7 22 -5.4 42 42 N 9 15 30.1 1019 10 16.0934 0 0
11:35 am 11:35 Sunny 44 6.9 21 -6.1 39 39 N 9 15 30.11 1020 10 16.0934 0 0
11:55 am 11:55 Sunny 45 7.2 21 -6.2 38 38 N 9 15 30.1 1019 10 16.0934 0 0
12:15 pm 12:15 Sunny 46 7.6 20 -6.6 36 36 N 8 13 30.09 1019 10 16.0934 0 0
12:35 pm 12:35 Sunny 46 7.9 19 -7 34 34 N 8 13 30.09 1019 10 16.0934 0 0
12:55 pm 12:55 Sunny 47 8.4 19 -7.1 33 33 N 6 9 30.08 1019 10 16.0934 0 0
1:15 pm 13:15 Sunny 48 8.9 19 -7.2 32 32 N 7 11 30.07 1018 10 16.0934 0 0
1:35 pm 13:35 Sunny 47 8.6 18 -7.6 31 31 NNW 8 13 30.07 1018 10 16.0934 0 0
1:55 pm 13:55 Sunny 47 8.6 19 -7.1 32 32 Calm 30.06 1018 10 16.0934 0 0
2:15 pm 14:15 Sunny 49 9.2 19 -7 31 31 N 6 9 30.04 1017 10 16.0934 0 0
2:35 pm 14:35 Sunny 49 9.2 18 -7.9 29 29 N 9 15 30.03 1017 10 16.0934 0 0
2:55 pm 14:55 Sunny 49 9.3 18 -7.9 29 29 Calm 30.03 1017 10 16.0934 0 0
3:15 pm 15:15 Sunny 50 9.9 17 -8.4 27 27 NW 6 9 30.02 1017 10 16.0934 0 0
3:35 pm 15:35 Sunny 49 9.4 17 -8.6 27 27 SW 3 6 30.03 1017 10 16.0934 0 0
3:55 pm 15:55 Sunny 50 10 16 -9.1 25 25 NNW 3 6 30.02 1017 10 16.0934 0 0
4:15 pm 16:15 Sunny 50 9.8 15 -9.3 25 25 WNW 6 9 30.02 1017 10 16.0934 0 0
4:35 pm 16:35 Sunny 49 9.5 15 -9.4 26 26 NW 3 6 30.03 1017 10 16.0934 0 0
4:55 pm 16:55 Sunny 49 9.5 14 -10.1 24 24 SW 6 9 30.02 1016 10 16.0934 0 0
5:15 pm 17:15 Sunny 48 9.1 15 -9.7 26 26 Calm 30.02 1017 10 16.0934 0 0
5:35 pm 17:35 Sunny 47 8.3 15 -9.6 27 27 Calm 30.03 1017 10 16.0934 0 0
5:55 pm 17:55 Sunny 46 7.6 14 -9.8 28 28 SSW 3 6 30.04 1017 10 16.0934 0 0
6:15 pm 18:15 Partly Cloudy 44 6.6 14 -10 30 30 S 6 9 30.05 1018 10 16.0934 0 0
6:35 pm 18:35 Clear 42 5.4 14 -10.2 32 32 S 6 9 30.06 1018 10 16.0934 0 0
6:55 pm 18:55 Clear 40 4.5 15 -9.4 36 36 S 9 15 30.07 1018 10 16.0934 0 0
7:15 pm 19:15 Clear 38 3.6 15 -9.6 38 38 SSW 9 15 30.1 1019 10 16.0934 0 0
7:35 pm 19:35 Clear 36 2 15 -9.2 44 44 SSW 7 11 30.11 1020 10 16.0934 0 0
7:55 pm 19:55 Clear 35 1.9 16 -9 45 45 SSW 7 11 30.1 1019 10 16.0934 0 0
8:15 pm 20:15 Clear 39 3.8 16 -9 39 39 SSW 9 15 30.08 1019 10 16.0934 0 0
8:35 pm 20:35 Clear 38 3.5 16 -8.7 41 41 SSW 9 15 30.08 1019 10 16.0934 0 0
8:55 pm 20:55 Partly Cloudy 38 3.5 17 -8.4 42 42 S 7 11 30.08 1019 10 16.0934 0 0
9:15 pm 21:15 Partly Cloudy 38 3.6 17 -8.5 41 41 SSW 9 15 30.08 1019 10 16.0934 0 0
9:35 pm 21:35 Clear 37 2.5 17 -8.2 46 46 SSW 8 13 30.1 1019 10 16.0934 0 0
9:55 pm 21:55 Partly Cloudy 37 2.5 17 -8.4 45 45 SSW 7 11 30.09 1019 10 16.0934 0 0
10:15 pm 22:15 Clear 37 2.7 16 -8.7 43 43 SSW 7 11 30.11 1020 10 16.0934 0 0
10:35 pm 22:35 Clear 37 2.8 16 -8.8 43 43 S 9 15 30.11 1020 10 16.0934 0 0
10:55 pm 22:55 Clear 38 3.3 16 -9 40 40 SSW 10 17 30.08 1019 10 16.0934 0 0
11:15 pm 23:15 Clear 38 3.3 16 -8.9 41 41 S 9 15 30.1 1019 10 16.0934 0 0
11:35 pm 23:35 Mostly Cloudy 37 3 17 -8.5 43 43 S 9 15 30.11 1020 10 16.0934 0 0
11:55 pm 23:55 Cloudy 37 3 17 -8.5 43 43 S 9 15 30.11 1020 10 16.0934 0 0

Powered by AerisWeather